Location: Hard
(49.9417°N, 12.0858°E)
Time: 17:02:07
(UTC+00:00)

BREEZE-M DEB (TANK) - Pass Details

Date: 07 June 2020
Orbit: 325 x 12053 km, 49.6° (Epoch: 13 July)

Event Time Altitude Azimuth Distance (km) Brightness Sun altitude
Rises 01:23:49 0° 276° (W) 2,393 5.1 -11.5°
Reaches altitude 10° 01:25:56 10° 275° (W) 1,303 3.8 -11.3°
Maximum altitude 01:28:18 75° 189° (S) 345 0.9 -11.1°
Drops below altitude 10° 01:31:00 10° 103° (ESE) 1,481 4.6 -10.9°
Sets 01:33:35 0° 102° (ESE) 2,807 6.0 -10.7°
